User: anonymous   Login
Location: Stamford Observatory
(41.1241°N, 73.5498°W)
Time: 22:36:49
(UTC-04:00)
Language:

IRS-P3 - Orbit

View from above orbital plane
View from above orbital plane
View from above satellite
View from above satellite

Ground track
Ground track

The orbit data is extracted from the following two-line orbital elements,

1 23827U 96017A   15213.47485718  .00000048  00000-0  41133-4 0  9999
2 23827 098.6588 149.5870 0002654 203.6081 156.4976 14.22377405  4927
Epoch (UTC): 01 August 2015 11:23:47
Eccentricity: 0.0002654
inclination: 98.6588°
perigee height: 815 km
apogee height: 819 km
right ascension of ascending node: 149.5870°
argument of perigee: 203.6081°
revolutions per day: 14.22377405
mean anomaly at epoch: 156.4976°
orbit number at epoch: 492

The dashed part of the orbit path shows where the satellite is in the earth's shadow,  

DLR